Weather reports worldwide

Advertisment
San Sebastian/Igueldo, Spain (8027): temperature & dewpoint: 10.09.2019 05:00:00 - 16.09.2019 05:00:00 (CEST)San Sebastian/Igueldo, Spain (8027): wind speed: 10.09.2019 05:00:00 - 16.09.2019 05:00:00 (CEST)San Sebastian/Igueldo, Spain (8027): wind direction: 10.09.2019 05:00:00 - 16.09.2019 05:00:00 (CEST)San Sebastian/Igueldo, Spain (8027): reduced air pressure: 10.09.2019 05:00:00 - 16.09.2019 05:00:00 (CEST)San Sebastian/Igueldo, Spain (8027): visibility: 10.09.2019 05:00:00 - 16.09.2019 05:00:00 (CEST)
Date & Time tt [°C] td [°C] ff [km/h] ff [kn] dd ppp [hPa] vv [km]
16.09.2019 05:00:00 - - - - - - -
16.09.2019 04:00:00 - - - - - - -
16.09.2019 03:00:00 - - - - - - -
16.09.2019 02:00:00 19,8 16,8 5 3 WSW 1020,5 40
16.09.2019 01:00:00 - - - - - - -
16.09.2019 00:00:00 - - - - - - -
15.09.2019 23:00:00 19,8 16,4 15 8 S 1021,4 40
15.09.2019 22:00:00 - - - - - - -
15.09.2019 21:00:00 - - - - - - -
15.09.2019 20:00:00 20,4 17,2 13 7 S 1020,2 40
15.09.2019 19:00:00 - - - - - - -
15.09.2019 18:00:00 - - - - - - -
15.09.2019 17:00:00 23,2 17,9 11 6 WSW 1021,2 40
15.09.2019 16:00:00 - - - - - - -
15.09.2019 15:00:00 - - - - - - -
15.09.2019 14:00:00 23,6 17,8 8 4 NNE 1021,5 25
15.09.2019 13:00:00 - - - - - - -
15.09.2019 12:00:00 - - - - - - -
15.09.2019 11:00:00 21,4 17,6 4 2 NW 1022,0 25
15.09.2019 10:00:00 - - - - - - -
15.09.2019 09:00:00 - - - - - - -
15.09.2019 08:00:00 19,4 16,1 5 3 SW 1021,9 25
15.09.2019 07:00:00 - - - - - - -
15.09.2019 06:00:00 - - - - - - -
15.09.2019 05:00:00 19,0 17,0 5 3 SSE 1022,4 30
15.09.2019 04:00:00 - - - - - - -
15.09.2019 03:00:00 - - - - - - -
15.09.2019 02:00:00 19,4 17,5 5 3 SE 1023,0 30
15.09.2019 01:00:00 - - - - - - -
15.09.2019 00:00:00 - - - - - - -
14.09.2019 23:00:00 19,6 17,7 5 3 SSE 1023,3 25
14.09.2019 22:00:00 - - - - - - -
14.09.2019 21:00:00 - - - - - - -
14.09.2019 20:00:00 20,8 17,2 8 4 E 1023,4 35
14.09.2019 19:00:00 - - - - - - -
14.09.2019 18:00:00 - - - - - - -
14.09.2019 17:00:00 20,8 17,2 11 6 N 1023,3 25
14.09.2019 16:00:00 - - - - - - -
14.09.2019 15:00:00 - - - - - - -
14.09.2019 14:00:00 22,5 17,8 5 3 N 1024,4 40
14.09.2019 13:00:00 - - - - - - -
14.09.2019 12:00:00 - - - - - - -
14.09.2019 11:00:00 21,0 17,8 2 1 E 1025,2 30
14.09.2019 10:00:00 - - - - - - -
14.09.2019 09:00:00 - - - - - - -
14.09.2019 08:00:00 17,8 15,4 8 4 S 1025,3 15
14.09.2019 07:00:00 - - - - - - -
14.09.2019 06:00:00 - - - - - - -
14.09.2019 05:00:00 19,7 19,2 4 2 S 1025,4 15
14.09.2019 04:00:00 - - - - - - -
14.09.2019 03:00:00 - - - - - - -
14.09.2019 02:00:00 18,1 16,8 8 4 SSE 1026,7 15
14.09.2019 01:00:00 - - - - - - -
14.09.2019 00:00:00 - - - - - - -
13.09.2019 23:00:00 17,3 16,8 4 2 SSE 1027,6 15
13.09.2019 22:00:00 - - - - - - -
13.09.2019 21:00:00 - - - - - - -
13.09.2019 20:00:00 18,5 17,5 4 2 SSW 1027,0 15
13.09.2019 19:00:00 - - - - - - -
13.09.2019 18:00:00 - - - - - - -
13.09.2019 17:00:00 20,1 17,3 9 5 WNW 1027,3 15
13.09.2019 16:00:00 - - - - - - -
13.09.2019 15:00:00 - - - - - - -
13.09.2019 14:00:00 18,3 16,8 13 7 NW 1028,2 18
13.09.2019 13:00:00 - - - - - - -
13.09.2019 12:00:00 - - - - - - -
13.09.2019 11:00:00 17,7 16,4 5 3 NW 1029,1 15
13.09.2019 10:00:00 - - - - - - -
13.09.2019 09:00:00 - - - - - - -
13.09.2019 08:00:00 15,6 15,3 8 4 W 1029,5 20
13.09.2019 07:00:00 - - - - - - -
13.09.2019 06:00:00 - - - - - - -
13.09.2019 05:00:00 15,7 13,7 9 5 WNW 1029,6 40
13.09.2019 04:00:00 - - - - - - -
13.09.2019 03:00:00 - - - - - - -
13.09.2019 02:00:00 16,0 14,2 4 2 WNW 1030,1 40
13.09.2019 01:00:00 - - - - - - -
13.09.2019 00:00:00 - - - - - - -
12.09.2019 23:00:00 15,7 14,7 2 1 SSE 1030,6 40
12.09.2019 22:00:00 - - - - - - -
12.09.2019 21:00:00 - - - - - - -
12.09.2019 20:00:00 17,4 15,0 5 3 NW 1030,2 40
12.09.2019 19:00:00 - - - - - - -
12.09.2019 18:00:00 - - - - - - -
12.09.2019 17:00:00 18,2 15,3 8 4 NW 1029,9 30
12.09.2019 16:00:00 - - - - - - -
12.09.2019 15:00:00 - - - - - - -
12.09.2019 14:00:00 17,2 12,5 8 4 NNW 1031,5 40
12.09.2019 13:00:00 - - - - - - -
12.09.2019 12:00:00 - - - - - - -
12.09.2019 11:00:00 16,6 13,7 4 2 NW 1031,7 15
12.09.2019 10:00:00 - - - - - - -
12.09.2019 09:00:00 - - - - - - -
12.09.2019 08:00:00 13,4 13,4 4 2 SSE 1030,3 12
12.09.2019 07:00:00 - - - - - - -
12.09.2019 06:00:00 - - - - - - -
12.09.2019 05:00:00 14,2 13,9 4 2 S 1030,3 30
12.09.2019 04:00:00 - - - - - - -
12.09.2019 03:00:00 - - - - - - -
12.09.2019 02:00:00 15,4 14,3 5 3 E 1030,3 25
12.09.2019 01:00:00 - - - - - - -
12.09.2019 00:00:00 - - - - - - -
11.09.2019 23:00:00 16,4 14,2 11 6 N 1030,2 18
11.09.2019 22:00:00 - - - - - - -
11.09.2019 21:00:00 - - - - - - -
11.09.2019 20:00:00 17,6 15,9 13 7 NNW 1028,0 25
11.09.2019 19:00:00 - - - - - - -
11.09.2019 18:00:00 - - - - - - -
11.09.2019 17:00:00 19,2 14,9 18 10 NNW 1027,8 45
11.09.2019 16:00:00 - - - - - - -
11.09.2019 15:00:00 - - - - - - -
11.09.2019 14:00:00 18,3 15,0 11 6 NW 1027,3 30
11.09.2019 13:00:00 - - - - - - -
11.09.2019 12:00:00 - - - - - - -
11.09.2019 11:00:00 17,5 13,8 15 8 NNW 1026,6 25
11.09.2019 10:00:00 - - - - - - -
11.09.2019 09:00:00 - - - - - - -
11.09.2019 08:00:00 16,7 12,7 15 8 N 1024,7 70
11.09.2019 07:00:00 - - - - - - -
11.09.2019 06:00:00 - - - - - - -
11.09.2019 05:00:00 17,0 14,3 24 13 NNW 1022,9 20
11.09.2019 04:00:00 - - - - - - -
11.09.2019 03:00:00 - - - - - - -
11.09.2019 02:00:00 17,2 14,5 24 13 NNW 1022,5 20
11.09.2019 01:00:00 - - - - - - -
11.09.2019 00:00:00 - - - - - - -
10.09.2019 23:00:00 16,5 12,8 24 13 NNW 1021,7 20
10.09.2019 22:00:00 - - - - - - -
10.09.2019 21:00:00 - - - - - - -
10.09.2019 20:00:00 16,0 12,4 18 10 N 1019,2 20
10.09.2019 19:00:00 - - - - - - -
10.09.2019 18:00:00 - - - - - - -
10.09.2019 17:00:00 16,6 12,8 29 16 NNW 1016,9 25
10.09.2019 16:00:00 - - - - - - -
10.09.2019 15:00:00 - - - - - - -
10.09.2019 14:00:00 16,0 13,5 24 13 NW 1015,3 10
10.09.2019 13:00:00 - - - - - - -
10.09.2019 12:00:00 - - - - - - -
10.09.2019 11:00:00 13,0 11,6 28 15 WSW 1015,2 20
10.09.2019 10:00:00 - - - - - - -
10.09.2019 09:00:00 - - - - - - -
10.09.2019 08:00:00 11,4 10,3 22 12 WSW 1015,0 0,5
10.09.2019 07:00:00 - - - - - - -
10.09.2019 06:00:00 - - - - - - -
10.09.2019 05:00:00 14,0 11,5 13 7 NW 1015,2 20

tt = temperature
td = dewpoint
ff = wind speed
dd = wind direction
ppp = reduced air pressure
vv = visibility

Next stations